Temp
25 25 25 25 25 25 26 26 26 26 25 25 24 24 24 23 23 24 24 24 24 24 24 24 24 24 24 24 24 25 24 24 24 23 23 23 23 24 24 24 24 25
25 25 25 25 26 26 26 26 26 26 25 25 24 24 24 24 24 24 24 24 24 24 24 24 24 24 24 24 24 24 24 23 23 22 22 23 23 23 24 24 24 24
25 25 26 26 26 26 26 27 26 26 26 25 25 24 24 24 24 24 24 24 24 24 24 24 24 24 24 24 24 24 24 23 22 22 22 22 23 23 23 23 23 23
26 26 26 26 26 27 27 27 27 27 26 26 25 25 25 25 24 24 24 24 24 23 24 24 24 24 23 23 23 24 23 23 22 22 22 22 22 23 23 23 23 23
26 26 26 26 27 27 27 27 27 27 27 26 26 26 25 25 25 25 24 24 24 24 24 24 24 24 23 23 23 23 23 23 22 22 22 22 22 22 22 23 22 22
26 26 27 27 27 27 28 27 27 27 27 26 26 26 25 25 25 25 24 24 24 24 24 24 24 24 24 23 23 22 23 23 22 22 22 22 22 22 22 22 21 21
27 27 27 27 27 27 27 27 27 27 26 26 26 25 25 25 24 24 24 24 24 24 24 23 23 24 23 23 22 22 22 23 22 22 22 22 22 22 22 22 21 21
27 27 27 27 27 27 27 27 26 26 26 26 25 25 25 25 24 24 24 24 24 24 24 23 23 23 23 22 22 22 22 22 22 21 22 22 22 22 22 22 21 21
26 26 26 26 27 27 26 26 26 25 25 25 25 25 25 24 24 24 24 23 23 23 23 23 23 23 22 22 22 22 22 22 21 21 21 22 22 22 22 21 21 21
26 26 26 26 26 26 25 25 25 24 24 24 24 24 24 24 24 24 23 23 23 23 23 23 23 23 22 22 22 22 22 21 21 21 21 21 22 21 21 21 21 20
26 26 26 26 25 24 24 24 24 24 24 24 24 23 23 23 23 23 23 23 24 24 23 23 23 22 22 22 22 22 21 21 21 21 21 21 21 21 21 21 20 20
26 26 26 25 24 24 24 24 24 24 23 23 23 23 23 23 23 23 23 23 24 24 23 23 23 22 22 22 21 21 21 21 21 21 21 21 21 20 20 20 20 20
26 25 25 24 24 24 23 24 24 23 23 23 23 23 22 23 23 23 23 23 23 23 23 23 23 22 21 21 21 21 20 20 21 21 20 21 20 20 20 20 20 19
25 25 24 24 23 24 23 23 23 23 23 23 22 22 22 23 23 24 23 23 23 23 23 23 22 21 21 21 20 20 20 20 20 20 20 20 20 20 20 20 20 20
25 24 24 24 23 24 23 23 23 23 22 22 22 22 22 23 23 23 23 23 23 23 23 22 21 21 20 20 20 20 19 19 19 19 20 20 20 20 20 20 20 20
24 24 24 24 24 23 23 23 23 23 22 22 22 22 22 23 23 23 23 23 23 23 22 21 20 20 20 20 20 19 19 19 19 19 20 20 21 21 20 20 20 20
24 23 23 24 24 23 23 22 22 22 22 22 22 22 22 23 23 23 23 23 23 22 21 21 20 20 20 20 20 19 19 20 19 19 20 20 21 21 20 20 20 20
24 23 23 23 24 23 23 22 22 22 21 21 22 23 23 23 23 23 23 23 22 21 21 20 20 19 19 20 20 20 19 19 19 19 20 21 21 20 20 20 20 19
24 23 22 23 23 23 22 22 21 21 21 21 22 23 23 23 23 23 23 23 22 21 20 20 19 19 19 19 20 19 19 19 19 19 20 21 21 21 20 20 20 19
24 23 22 22 22 22 22 22 21 21 22 22 22 23 23 24 23 23 22 22 22 21 20 19 19 19 19 19 19 19 19 19 19 20 21 21 21 20 20 20 19 19
24 23 23 23 22 22 22 22 21 22 22 22 23 23 23 23 23 23 22 22 22 21 20 19 19 19 19 19 19 19 19 19 19 20 20 20 20 20 20 19 19 19
24 23 23 23 23 22 22 22 22 22 22 22 23 23 23 23 23 22 22 21 21 21 20 19 19 18 19 19 18 19 19 18 18 19 19 19 20 19 19 19 19 19
24 23 22 23 23 22 22 22 22 22 22 23 23 22 22 22 22 22 21 20 20 20 20 19 18 18 18 18 18 18 18 18 17 18 18 19 19 19 18 18 18 18
24 23 23 23 23 22 22 22 22 22 22 23 22 22 22 22 22 21 20 20 20 20 20 19 18 18 19 18 18 18 18 17 17 17 18 18 18 18 18 18 18 18
24 23 23 23 23 22 22 22 22 22 22 22 22 22 22 22 22 21 20 20 20 20 20 19 18 18 18 18 18 18 18 17 17 17 17 17 17 17 17 18 18 18
24 23 23 23 22 22 22 22 22 22 22 22 22 22 21 21 21 21 20 20 19 19 19 19 18 18 18 18 18 18 17 17 17 17 17 17 17 17 17 17 17 17
Height
794 794 794 794 794 794 794 794 794 795 795 796 797 798 798 799 799 800 801 801 801 802 802 802 802 802 802 802 802 801 801 801 801 801 801 801 800 799 798 798 797 796
795 795 795 795 795 795 795 795 796 796 796 797 798 799 799 800 800 801 802 802 802 802 803 803 803 803 803 803 802 802 801 802 802 802 801 801 800 800 799 798 797 797
796 796 796 796 796 796 796 796 797 797 797 798 799 799 800 800 801 801 802 802 802 803 803 804 804 804 804 803 803 802 802 802 803 802 802 801 801 800 800 799 798 798
797 797 797 797 797 797 797 797 797 798 798 799 800 800 800 800 801 801 802 802 803 803 804 805 805 804 804 804 803 803 803 803 803 803 802 802 802 801 800 800 799 798
798 798 798 798 798 798 798 798 798 799 799 800 800 800 801 801 802 802 802 803 803 804 804 805 805 805 805 804 804 804 804 803 803 803 803 803 803 802 801 801 800 799
799 799 799 799 799 799 799 799 799 800 800 801 801 802 802 802 803 803 803 804 804 804 805 805 805 805 805 805 805 805 805 805 804 804 804 804 804 803 802 802 801 800
800 800 800 800 800 800 800 800 801 801 801 802 802 803 803 803 804 804 804 805 805 805 805 806 806 806 806 806 806 806 806 806 805 805 805 804 804 804 803 803 802 801
801 801 801 801 801 801 801 801 802 802 802 802 802 803 803 803 804 804 805 805 805 806 806 806 806 806 807 807 807 808 807 807 807 806 806 805 804 804 804 803 803 802
802 802 802 802 802 802 802 802 802 802 802 802 803 803 803 804 804 804 805 805 806 806 806 807 807 807 808 808 808 808 808 808 808 807 806 806 805 805 804 804 803 803
803 803 803 803 802 803 803 803 803 803 803 803 803 804 804 804 805 804 805 805 805 806 806 807 808 808 808 809 809 809 808 808 808 808 807 807 806 805 805 804 804 803
804 804 804 803 803 804 804 804 804 803 804 804 804 804 805 805 805 805 805 805 805 806 806 807 808 808 808 809 809 809 808 808 808 808 808 807 806 806 805 805 804 803
805 805 804 803 804 805 805 805 805 804 805 805 804 804 805 805 805 805 806 806 806 806 807 807 808 808 808 808 808 808 808 808 808 808 807 807 806 806 805 804 804 803
806 805 804 804 805 806 806 806 805 805 805 805 805 805 805 805 805 805 806 806 806 806 807 807 807 808 809 808 808 808 808 808 807 807 807 806 806 805 804 804 803 803
806 806 804 805 807 806 806 806 806 806 806 806 806 805 805 806 806 806 806 806 806 806 806 806 807 808 808 808 808 808 807 807 806 806 806 805 805 804 804 803 802 802
807 807 806 807 807 806 806 806 806 806 806 806 807 806 806 806 806 806 806 806 806 806 806 806 807 807 807 807 807 807 806 806 806 805 805 804 804 803 803 802 801 801
808 807 807 807 807 807 807 807 807 807 808 808 808 807 807 807 807 807 806 806 806 806 806 806 807 807 807 807 807 806 806 805 805 804 804 803 803 802 802 801 801 800
808 807 807 807 808 809 809 809 810 810 811 811 810 809 808 808 808 807 807 807 807 806 806 806 807 807 807 807 806 806 805 804 803 803 803 802 802 801 801 800 800 800
807 807 808 808 808 809 810 810 812 813 813 813 813 811 810 809 809 808 808 808 807 806 807 807 807 808 807 807 806 805 804 803 802 802 802 802 801 800 800 800 799 799
807 807 808 809 809 810 811 812 814 814 813 813 813 813 811 810 809 809 808 809 808 807 808 808 808 808 807 806 805 804 804 802 802 802 801 801 801 800 800 799 799 798
806 807 808 810 810 811 812 813 814 813 812 812 813 813 812 810 810 810 809 810 809 808 808 808 808 808 807 807 806 804 803 802 802 802 801 801 800 800 800 799 798 797
806 807 808 809 810 811 812 812 812 812 812 813 812 813 812 811 811 811 810 811 810 809 809 809 809 808 808 807 806 805 804 803 802 802 801 801 800 800 800 799 798 797
806 807 808 809 811 812 812 812 811 811 812 812 812 813 813 812 813 812 811 811 811 811 810 810 809 809 808 807 806 805 804 803 803 802 801 801 800 800 799 798 798 796
805 807 808 809 810 811 811 810 811 811 812 812 812 812 813 813 813 813 812 812 812 812 811 811 810 809 808 808 807 806 804 804 803 802 802 801 801 800 799 798 797 795
805 806 807 808 809 810 810 810 811 812 812 811 812 812 813 814 813 813 813 813 813 813 812 811 811 810 809 808 807 806 805 804 803 803 802 802 801 800 799 798 797 795
805 806 807 808 809 809 810 810 811 811 812 811 812 812 813 813 813 813 813 813 813 813 813 812 812 810 810 809 808 807 806 805 804 803 802 802 801 800 799 798 797 795
805 806 807 808 809 809 809 810 811 811 812 811 811 812 813 813 813 814 814 814 814 814 813 813 812 811 810 809 808 808 807 805 804 804 803 802 801 800 799 797 797 796
Wind_Speed
10 10 10 11 11 10 10 10 10 12 13 13 11 9 9 9 8 7 7 9 8 7 7 7 8 7 8 8 7 8 11 11 12 14 15 15 14 14 14 14 14 14
10 10 10 10 10 11 10 11 12 13 14 13 12 10 8 6 7 7 8 9 7 6 7 8 9 9 9 8 8 9 9 10 12 15 16 15 14 14 14 14 13 14
10 10 10 10 10 10 10 12 13 12 12 12 12 11 8 6 7 8 8 7 8 8 8 8 8 9 9 8 11 11 10 11 13 15 16 16 14 14 13 13 13 14
11 10 10 9 8 8 9 11 12 11 11 11 10 8 7 7 7 7 6 6 8 9 8 8 8 8 9 9 12 13 10 11 15 16 17 15 14 14 13 13 14 14
10 10 9 7 7 8 10 11 12 11 11 10 9 8 9 8 6 6 7 7 9 9 8 8 8 7 8 9 12 13 11 12 16 17 17 14 13 15 14 14 16 16
9 9 9 9 9 10 11 12 12 12 12 11 10 10 10 10 9 9 9 9 9 9 8 8 8 8 10 11 12 13 11 13 16 16 14 13 13 14 14 13 16 16
11 10 10 10 10 11 12 13 13 12 11 10 10 11 11 10 10 9 10 9 9 9 9 8 9 11 12 12 12 12 11 12 15 15 13 12 11 12 14 13 14 16
12 11 11 11 11 12 13 12 12 12 11 10 10 10 10 10 10 9 9 9 9 9 9 9 10 11 11 11 11 11 10 11 14 15 13 13 11 12 13 13 13 15
11 11 12 13 13 13 13 12 12 12 12 13 11 11 10 10 10 9 9 9 9 8 8 9 9 9 10 10 10 10 10 11 13 14 13 13 12 12 13 13 13 13
11 11 11 11 12 13 12 12 12 12 12 12 12 12 11 9 8 8 8 8 8 7 7 8 8 8 9 9 8 9 11 11 12 12 12 12 12 12 13 12 12 13
10 10 11 11 11 12 12 12 11 10 11 11 11 12 11 8 8 7 7 7 6 6 8 8 7 7 8 7 7 8 10 11 11 10 11 11 11 12 12 11 11 11
9 10 11 9 9 10 10 9 9 9 11 11 10 9 9 8 8 7 7 6 6 7 7 6 6 6 6 6 7 8 9 10 10 10 10 10 10 11 11 9 10 10
9 10 8 6 7 9 8 8 9 10 10 10 9 8 7 6 5 6 6 5 6 6 4 3 3 5 6 8 8 8 9 9 9 10 11 10 9 10 10 9 9 9
10 8 5 5 8 8 8 8 9 9 9 9 8 8 8 6 5 5 5 4 5 5 5 6 8 8 8 9 8 8 9 9 9 10 11 10 9 9 9 9 9 9
10 7 4 5 7 7 8 8 8 9 9 9 8 8 7 6 5 5 4 4 4 5 7 10 10 9 10 10 10 10 10 10 10 10 10 10 9 9 8 8 9 9
9 7 3 4 6 7 7 7 8 8 8 8 8 7 7 6 5 4 5 5 4 4 8 10 9 10 10 10 11 12 12 13 11 10 9 9 8 8 8 8 10 10
9 8 6 3 3 6 6 6 7 8 8 9 7 6 6 5 5 4 4 5 5 6 9 10 10 10 10 11 12 12 14 14 11 8 8 8 7 8 9 9 10 11
8 9 9 5 2 4 5 5 6 7 8 8 6 4 4 4 5 5 4 5 7 8 9 10 10 10 12 13 14 15 14 11 8 6 7 7 7 9 9 10 11 12
8 8 9 7 3 1 2 4 6 6 5 5 5 4 3 3 5 6 6 6 7 9 10 10 11 11 14 15 16 15 11 8 8 7 7 8 8 10 10 11 13 13
8 8 9 8 7 4 2 4 6 3 3 5 4 3 3 3 5 5 6 6 6 7 8 9 11 12 15 16 16 14 10 9 10 9 8 9 9 11 12 13 13 13
7 7 7 7 7 5 4 7 5 3 4 5 3 3 4 5 5 5 6 7 7 7 7 9 11 12 15 16 14 13 11 10 11 10 10 10 11 12 13 14 15 15
7 7 6 5 5 6 7 6 3 3 5 4 2 4 6 5 5 6 6 7 8 7 6 7 10 13 15 14 14 15 14 12 12 12 11 11 12 13 15 16 16 14
7 7 6 5 5 5 6 4 3 3 4 3 4 5 5 3 4 5 6 7 7 8 6 4 8 13 15 13 14 16 16 14 13 12 12 13 14 15 16 17 14 10
7 7 6 5 5 5 5 5 4 4 4 5 5 4 2 3 4 5 6 6 6 7 7 4 7 12 14 13 15 16 16 16 14 13 13 14 15 17 17 16 13 10
6 7 6 5 5 5 5 5 5 4 5 5 4 4 4 4 6 6 6 7 7 6 6 6 7 10 12 15 17 17 17 17 15 13 14 15 17 17 17 16 14 11
7 7 7 5 5 4 4 5 5 5 5 4 5 7 7 6 6 6 6 7 7 5 5 5 5 6 9 14 17 17 16 17 15 14 15 16 17 17 16 16 16 13
Wind_Direction
76 74 72 73 69 63 64 65 69 74 80 89 93 94 102 106 113 121 109 97 98 100 86 72 63 57 52 45 39 36 28 29 39 31 18 11 1 356 357 354 353 356
80 78 76 79 77 71 68 69 77 84 85 89 97 98 97 95 89 94 99 93 92 93 78 68 64 57 51 33 15 30 47 47 37 24 15 8 2 360 358 356 358 359
83 80 79 79 76 75 76 78 80 87 89 91 99 99 95 94 80 76 92 97 89 86 76 69 66 58 50 23 15 39 64 57 38 23 15 12 7 2 359 358 359 358
83 80 78 76 73 75 79 79 75 74 80 89 101 98 86 97 102 90 96 101 91 88 83 75 68 58 50 33 31 42 49 49 40 23 16 17 11 3 1 2 2 359
86 86 78 67 66 70 69 68 66 67 69 72 81 80 70 78 89 81 86 98 94 90 89 77 64 59 61 50 42 35 27 34 36 21 14 17 13 6 2 4 6 2
92 86 74 61 62 68 68 63 58 59 58 54 55 59 62 67 66 61 65 81 88 82 76 67 53 53 64 59 49 36 21 25 31 22 12 13 11 6 3 3 4 0
81 73 67 63 65 68 69 65 57 54 55 53 52 52 55 62 65 65 61 66 77 74 71 71 58 53 54 50 45 36 20 20 25 17 7 5 3 2 1 358 356 354
76 70 63 60 60 60 61 62 57 52 48 45 45 46 51 56 62 70 69 70 78 74 71 72 63 58 53 44 43 35 22 20 18 9 3 360 356 359 358 351 348 347
78 70 62 58 58 57 55 56 53 48 45 45 42 39 43 52 60 72 80 82 84 81 80 76 66 62 58 48 44 33 25 24 14 4 0 355 351 356 353 348 347 344
80 72 66 63 65 63 57 55 54 48 43 45 47 42 41 52 61 71 85 88 90 91 89 83 75 72 65 53 42 29 25 23 9 359 356 349 347 353 348 347 350 343
86 78 70 65 66 66 60 55 53 48 39 39 45 43 43 57 65 67 79 86 89 87 78 71 71 79 73 56 41 31 24 16 2 354 350 342 344 349 344 346 350 343
90 78 73 74 73 69 63 53 45 41 37 36 43 45 45 57 70 73 77 85 87 82 79 69 62 77 79 62 49 36 23 11 359 351 342 337 343 345 340 346 350 345
94 83 84 88 77 70 63 47 40 39 35 32 38 49 52 47 65 86 87 92 90 79 81 84 79 90 81 63 51 35 20 9 359 350 338 333 341 341 339 345 344 340
97 96 105 92 74 64 52 40 36 34 32 34 39 54 64 50 50 84 95 101 95 74 78 99 104 96 70 51 43 31 19 10 359 346 333 332 340 338 337 341 337 335
103 108 115 92 76 57 41 35 32 26 25 32 36 48 70 72 60 70 84 87 80 69 86 100 96 74 50 37 32 24 16 7 353 336 328 330 332 333 338 343 344 346
113 118 114 89 73 58 39 24 25 25 21 28 39 46 62 73 71 78 88 80 65 82 100 100 80 57 41 26 18 12 4 356 348 337 330 327 329 336 343 347 350 352
127 129 128 111 62 54 46 26 23 25 18 18 28 42 53 63 64 70 88 79 75 107 109 90 70 54 32 15 8 1 354 350 348 344 334 332 340 345 343 347 351 349
148 146 134 119 54 27 37 37 30 24 12 360 360 22 50 76 72 61 65 65 80 110 105 76 62 46 23 10 2 355 352 354 358 348 333 338 347 344 342 347 345 342
162 154 135 128 123 52 31 43 37 24 6 360 6 11 18 69 79 71 63 52 72 107 100 68 55 38 17 7 1 358 3 12 8 347 333 341 348 347 347 344 341 340
167 157 146 146 149 151 115 65 52 31 26 42 35 351 346 38 60 67 68 53 64 107 98 61 47 31 13 6 5 8 22 24 7 352 345 349 351 351 349 344 341 338
172 167 159 152 147 137 96 71 59 39 54 57 33 347 20 48 54 59 66 54 56 87 82 52 43 28 13 10 11 16 27 25 7 357 355 353 352 351 349 346 342 336
174 170 164 155 142 120 94 82 83 72 61 56 38 29 33 40 48 56 59 49 46 54 57 52 44 27 16 16 17 19 23 20 7 1 360 354 351 351 348 344 341 340
177 173 165 157 139 117 103 97 99 86 69 59 59 53 33 25 54 62 55 52 42 26 28 63 49 27 19 19 19 19 21 17 7 2 0 353 349 349 345 343 344 346
176 173 166 154 132 118 112 102 92 85 79 71 67 67 39 26 66 80 66 61 50 19 19 60 48 25 22 24 21 17 19 18 10 3 359 352 348 346 343 344 348 343
176 169 161 149 127 117 117 113 110 104 89 73 61 76 74 38 43 65 59 45 41 26 24 46 42 25 26 29 23 17 17 18 13 5 358 351 346 343 342 346 348 337
173 161 149 141 126 117 119 119 118 110 96 77 53 58 63 43 32 46 44 29 29 28 26 35 31 13 13 18 19 18 16 14 11 3 354 348 343 340 340 344 345 342